TimeEST,TemperatureF,Dew PointF,Humidity,Sea Level PressureIn,VisibilityMPH,Wind Direction,Wind SpeedMPH,Gust SpeedMPH,PrecipitationIn,Events,Conditions,WindDirDegrees,DateUTC
12:54 AM,30.0,26.1,85,30.45,10.0,Calm,Calm,-,N/A,,Clear,0,2012-11-13 05:54:00
1:54 AM,28.0,26.1,92,30.45,10.0,South,3.5,-,N/A,,Clear,180,2012-11-13 06:54:00
2:54 AM,27.0,25.0,92,30.46,10.0,South,5.8,-,N/A,,Clear,170,2012-11-13 07:54:00
3:54 AM,28.0,25.0,88,30.45,10.0,South,3.5,-,N/A,,Clear,190,2012-11-13 08:54:00
4:54 AM,28.9,25.0,85,30.46,10.0,Calm,Calm,-,N/A,,Clear,0,2012-11-13 09:54:00
5:54 AM,25.0,24.1,96,30.47,10.0,SSE,4.6,-,N/A,,Clear,150,2012-11-13 10:54:00
6:54 AM,25.0,23.0,92,30.49,10.0,South,3.5,-,N/A,,Clear,190,2012-11-13 11:54:00
7:54 AM,26.1,24.1,92,30.51,10.0,South,4.6,-,N/A,,Clear,170,2012-11-13 12:54:00
8:54 AM,30.0,28.0,92,30.52,10.0,Calm,Calm,-,N/A,,Clear,0,2012-11-13 13:54:00
9:54 AM,36.0,28.9,76,30.52,10.0,Calm,Calm,-,N/A,,Clear,0,2012-11-13 14:54:00
10:54 AM,39.9,28.9,65,30.52,10.0,Calm,Calm,-,N/A,,Clear,0,2012-11-13 15:54:00
11:54 AM,41.0,26.1,55,30.51,10.0,SW,4.6,-,N/A,,Clear,220,2012-11-13 16:54:00
12:54 PM,42.1,24.1,49,30.48,10.0,Calm,Calm,-,N/A,,Clear,0,2012-11-13 17:54:00
1:54 PM,43.0,25.0,49,30.46,10.0,Calm,Calm,-,N/A,,Clear,0,2012-11-13 18:54:00
2:54 PM,44.1,26.1,49,30.46,10.0,Calm,Calm,-,N/A,,Clear,0,2012-11-13 19:54:00
3:54 PM,44.1,26.1,49,30.46,10.0,NW,4.6,-,N/A,,Clear,310,2012-11-13 20:54:00
4:54 PM,42.1,27.0,55,30.46,10.0,NNE,4.6,-,N/A,,Clear,30,2012-11-13 21:54:00
5:54 PM,39.0,25.0,57,30.46,10.0,NE,3.5,-,N/A,,Clear,50,2012-11-13 22:54:00
6:54 PM,36.0,26.1,67,30.48,10.0,Calm,Calm,-,N/A,,Clear,0,2012-11-13 23:54:00
7:54 PM,36.0,24.1,62,30.50,10.0,NNE,4.6,-,N/A,,Clear,30,2012-11-14 00:54:00
8:54 PM,33.1,24.1,70,30.50,10.0,NE,4.6,-,N/A,,Clear,50,2012-11-14 01:54:00
9:54 PM,32.0,24.1,73,30.51,10.0,ENE,3.5,-,N/A,,Clear,60,2012-11-14 02:54:00
10:54 PM,32.0,24.1,73,30.50,10.0,ENE,6.9,-,N/A,,Clear,60,2012-11-14 03:54:00
11:54 PM,30.0,23.0,75,30.49,10.0,NE,8.1,-,N/A,,Clear,40,2012-11-14 04:54:00